[Iaude] MPEC O67: 2024 OD [a=0.93,e=0.32,i=30.1,H=22.3]
    mpec at cfa.harvard.edu 
    mpec at cfa.harvard.edu
       
    Sat Jul 27 22:17:35 EDT 2024
    
    
  
M.P.E.C. 2024-O67                                 Issued 2024 July 28, 02:16 UT
     The Minor Planet Electronic Circulars contain information on unusual
         minor planets, routine data on comets and natural satellites,
         and occasional editorial announcements.  They are published
    on behalf of Division F of the International Astronomical Union by the
          Minor Planet Center, Smithsonian Astrophysical Observatory,
                          Cambridge, MA 02138, U.S.A.
			  
             Prepared using the Tamkin Foundation Computer Network
                              MPC at CFA.HARVARD.EDU
            URL https://www.minorplanetcenter.net/    ISSN 1523-6714
                                    2024 OD                                     
Observations:
     K24O00D  C2024 06 27.50955221 35 26.033+29 55 26.97         22.73GVEO067F52
     K24O00D  C2024 06 27.51745321 35 25.792+29 55 23.90         22.71GVEO067F52
     K24O00D  C2024 06 27.52535621 35 25.549+29 55 20.26         22.90GVEO067F52
     K24O00D* C2024 07 26.50773520 41 24.047+10 43 39.71         20.12wXEO067F51
     K24O00D  C2024 07 26.51377220 41 22.406+10 43 00.75         20.00wXEO067F51
     K24O00D  C2024 07 26.51981620 41 20.756+10 42 21.62         20.06wXEO067F51
     K24O00D  C2024 07 26.52582220 41 19.112+10 41 42.62         20.17wXEO067F51
     K24O00D KB2024 07 26.65936220 40 45.963+10 27 04.75         18.9 VZEO067Q06
     K24O00D KB2024 07 26.66699520 40 43.838+10 26 15.74         21.8 VZEO067Q06
     K24O00D KC2024 07 26.93261 20 39 36.26 +09 56 55.8          18.8 GVEO067104
     K24O00D KC2024 07 26.93778720 39 34.73 +09 56 20.9          19.9 GXEO067595
     K24O00D KC2024 07 26.93988 20 39 34.32 +09 56 09.2          19.8 GXEO067K83
     K24O00D KC2024 07 26.94516 20 39 32.83 +09 55 32.8          20.1 GXEO067K83
     K24O00D KC2024 07 26.94709 20 39 32.30 +09 55 19.1                VEO067104
     K24O00D KC2024 07 26.94735020 39 32.10 +09 55 16.8          20.2 GXEO067595
     K24O00D KB2024 07 26.94990120 39 31.98 +09 55 00.3          19.4 GXEO067I93
     K24O00D KC2024 07 26.95027 20 39 31.37 +09 54 59.0          19.7 GXEO067K83
     K24O00D KB2024 07 26.95563520 39 30.42 +09 54 22.2          19.5 GXEO067I93
     K24O00D KC2024 07 26.95718920 39 29.38 +09 54 10.8          20.2 GXEO067595
     K24O00D KB2024 07 26.96120720 39 28.85 +09 53 44.9          20.1 GXEO067I93
     K24O00D pC2024 07 26.97494220 39 24.51 +09 52 13.6          20.2 GVEO067L01
     K24O00D IC2024 07 26.97663120 39 24.02 +09 52 01.4          20.1 GVEO067L01
     K24O00D IC2024 07 26.97831920 39 23.51 +09 51 49.9          19.9 GVEO067L01
     K24O00D IC2024 07 26.98000720 39 23.00 +09 51 38.9          19.4 GVEO067L01
     K24O00D IC2024 07 26.98169520 39 22.55 +09 51 28.8          19.5 GVEO067L01
     K24O00D KC2024 07 27.86665 20 35 26.51 +08 09 25.5          19.0 GVEO067C82
     K24O00D KC2024 07 27.87715 20 35 23.56 +08 08 09.9          19.0 GVEO067C82
     K24O00D KB2024 07 27.88636 20 35 20.34 +08 07 00.7          20.0 VZEO067M45
     K24O00D KB2024 07 27.88857 20 35 19.69 +08 06 44.7          20.2 VZEO067M45
     K24O00D KB2024 07 27.88882 20 35 20.12 +08 06 41.7          19.8 RZEO067106
     K24O00D KB2024 07 27.89061 20 35 19.10 +08 06 30.5          19.9 VZEO067M45
     K24O00D KB2024 07 27.89353 20 35 18.71 +08 06 08.8          19.3 RZEO067106
     K24O00D KB2024 07 27.89834 20 35 17.30 +08 05 34.6          19.7 RZEO067106
     K24O00D KB2024 07 27.90315 20 35 15.92 +08 05 00.0          19.6 RZEO067106
     K24O00D KC2024 07 28.01772720 34 43.157+07 51 11.12         19.7 GVEO067J95
     K24O00D KC2024 07 28.02394320 34 41.330+07 50 26.27         19.4 GVEO067J95
Observer details:
104 San Marcello Pistoiese.  Observers P. Bacci, M. Maestripieri, M. D.
    Grazia.  Measurer P. Bacci.  0.60-m f/4 reflector + CCD.
106 Crni Vrh.  Observer J. Vales.  0.60-m f/3.3 reflector + CMO.
595 Farra d'Isonzo.  Observer E. Pettarin.  0.61-m f/4.5 reflector + CCD.
C82 Osservatorio Astronomico Nastro Verde, Sorrento.  Observer N. Ruocco.
    0.35-m f/6.3  Schmidt-Cassegrain + CCD.
F51 Pan-STARRS 1, Haleakala.  Observers J. Herman, T. Lowe, P. Minguez, A.
    Schultz, I. Smith.  Measurers K. Chambers, T. de Boer, J. Fairlamb, H.
    Gao, M. Huber, C.-C. Lin, E. Magnier, Y. Ramanjooloo, R. Wainscoat, R.
    Weryk.  1.8-m Ritchey-Chretien + CCD.
F52 Pan-STARRS 2, Haleakala.  Observers J. Herman, T. Lowe, P. Minguez, A.
    Schultz, I. Smith.  Measurers K. Chambers, T. de Boer, J. Fairlamb, H.
    Gao, M. Huber, C.-C. Lin, E. Magnier, Y. Ramanjooloo, R. Wainscoat, R.
    Weryk.  1.8-m Ritchey-Chretien + CCD.
I93 St Pardon de Conques.  Observer F. Losse.  0.40-m f/3.7 reflector + CMO.
J95 Great Shefford.  Observer P. Birtwhistle.  0.41-m f/6.3 Schmidt-Cassegrain
    + CCD.
K83 Beppe Forti Astronomical Observatory, Montelupo.  Observers M. Tombelli,
    M. Iozzi, E. Venticinque, T. Bitossi, A. Mazzanti, G. Interrante, G.
    Ferrini, L. Grazzini, G. Baldi.  Measurers M. Tombelli, F. Bernardi, F.
    Cheli, A. Squilloni.  0.40-m f/8 Ritchey-Chretien + CMOS.
L01 Visnjan Observatory, Tican.  Observers K. Korlevic, G. Kervina.  Measurer
    K. Korlevic.  1.0-m f/2.9 reflector + CCD.
M45 Starhopper Observatory, Sfantu Gheorghe.  Observer F. Ursache.  0.41-m
    f/7.5 reflector + CMO.
Q06 Tarui Observatory, Tarui.  Observer H. Watanabe.  0.35-m f/1.9 Schmidt-
    Cassegrain + CMO.
Orbital elements:
2024 OD                                                  Earth MOID = 0.1132 AU
Epoch 2024 Oct. 17.0 TT = JDT 2460600.5                 MPC                     
M 313.69680              (2000.0)            P               Q                  
n   1.10366930     Peri.  327.83470     -0.23287877     -0.89954338             
a   0.9273494      Node   132.53339     +0.96417712     -0.26319179             
e   0.3186616      Incl.   30.10223     +0.12700374     +0.34864279             
P   0.89           H   22.32          G   0.15           U   7                  
Residuals in seconds of arc
240627 F52  0.2+  0.1+    240726 K83  0.1-  0.0     240726 L01  1.0-  1.0+
240627 F52  0.0   0.2+    240726 104  0.2-  0.6-    240727 C82 (1.0-  0.7+)
240627 F52  0.2-  0.3-    240726 595  0.2-  0.0     240727 C82  0.3+  0.1+
240726 F51  0.0   0.0     240726 I93  0.2+  0.0     240727 M45  0.1+  0.0
240726 F51  0.1+  0.1+    240726 K83  0.9-  0.3+    240727 M45  0.1-  0.2-
240726 F51  0.1+  0.0     240726 I93  0.5+  0.1+    240727 106  0.8+  0.9-
240726 F51  0.0   0.0     240726 595  0.3-  0.3-    240727 M45  0.1-  0.2+
240726 Q06  0.3+  0.1-    240726 I93  0.0   0.0     240727 106  0.1+  0.1-
240726 Q06  0.2-  0.7+    240726 L01  0.3+  0.6+    240727 106  0.2-  0.1+
240726 104  0.7-  0.3-    240726 L01  0.0   0.3-    240727 106  0.0   0.1-
240726 595  0.3-  0.5+    240726 L01  0.7-  0.5-    240728 J95  0.0   0.0
240726 K83  0.4+  1.2+    240726 L01  1.3-  0.2-    240728 J95  0.2-  0.1+
Ephemeris:
2024 OD                  a,e,i = 0.93, 0.32, 30                  q = 0.6318
Date    TT    R. A. (2000) Decl.     Delta      r    Elong.  Phase     V
2024 06 28    21 35 15.3 +29 51 52   0.4067  1.2195   110.4    51.4    22.7
...
2024 07 13    21 20 20.1 +25 16 43   0.2813  1.2029   125.8    43.3    21.6
...
2024 07 21    21 01 21.3 +18 41 10   0.2188  1.1882   138.2    34.7    20.8
...
2024 07 27    20 39 18.1 +09 49 59   0.1786  1.1746   150.8    25.0    20.1
2024 07 28    20 34 48.4 +07 54 00   0.1728  1.1721   153.1    23.1    19.9
2024 07 29    20 30 02.9 +05 49 05   0.1673  1.1696   155.4    21.2    19.8
...
2024 08 04    19 55 32.2 -09 47 47   0.1436  1.1529   163.3    14.6    19.2
...
2024 08 12    18 52 57.5 -34 19 19   0.1434  1.1273   140.3    35.1    19.8
...
2024 08 27    16 32 41.9 -59 25 37   0.2161  1.0689    99.9    68.6    21.6
A. U. Tomatic                (C) Copyright 2024 MPC           M.P.E.C. 2024-O67
    
    
More information about the Iaude
mailing list